Regional Weather Roundup
Issued by NWS Green Bay, WI

Home | Current Version | Previous Version | Text Only | Print | Product List | Glossary On
Versions: 1 2 3 4 5 6 7 8 9 10 11 12 13 14 15 16 17 18 19 20 21 22 23 24 25 26 27 28 29 30 31 32 33 34 35 36 37 38 39 40 41 42 43 44 45 46 47 48 49 50
000
ASUS43 KGRB 191111
RWRGRB

NORTH-CENTRAL AND NORTHEAST WISCONSIN REGIONAL WEATHER ROUNDUP
NATIONAL WEATHER SERVICE GREEN BAY WI
500 AM CST SUN NOV 19 2017

WIZ005-009-010>012-018-019-191200-
NORTH CENTRAL WISCONSIN

CITY           SKY/WX    TMP DP  RH WIND       PRES   REMARKS
IRONWOOD       FLURRIES N/A N/A N/A W15       29.91S
MANITOWISH WTR LGT SNOW  15  14  94 CALM      29.89S
ARBOR VITAE    LGT SNOW  19  14  82 NW7       29.88S WCI  10
EAGLE RIVER    FLURRIES  17  11  78 W9        29.87R WCI   6
LAND O LAKES   LGT SNOW  18  14  87 W6        29.87R WCI   9
RHINELANDER    LGT SNOW   1  32 100 W10       29.88S WCI -15
PHILLIPS       CLOUDY    16  10  74 W8        29.92R WCI   6
ANTIGO         FLURRIES  20  14  76 NW16G22   29.87S WCI   6
TOMAHAWK       FLURRIES  17  11  75 W8        29.91S WCI   7
MERRILL        CLOUDY    19  10  69 NW9G17    29.93R WCI   7
$$

WIZ013-073-191200-
NORTHEAST WISCONSIN

CITY           SKY/WX    TMP DP  RH WIND       PRES   REMARKS
IRON MOUNTAIN  CLOUDY    22  11  62 NW13G22   29.83R WCI  10
MARINETTE      FLURRIES  28  18  66 NW13      29.87R
OCONTO         CLOUDY    27  14  57 NW13G22   29.89R
$$

WIZ017-030-035>037-045-191200-
CENTRAL WISCONSIN

CITY           SKY/WX    TMP DP  RH WIND       PRES   REMARKS
MEDFORD        FLURRIES  18  11  74 W12       29.92R WCI   6
WAUSAU         CLOUDY    20  11  68 NW9G18    29.91R WCI   9
MOSINEE        CLOUDY    19  12  73 NW16      29.93R WCI   5
MARSHFIELD     CLOUDY    20  11  68 NW15G23   29.93S WCI   6
WISC RAPIDS    MOCLDY    21  12  68 NW12G22   29.97R WCI   9
STEVENS POINT  CLOUDY    21  11  65 NW10G17   29.93S WCI  10
WAUPACA        CLOUDY    28  14  57 W12       29.93R
SHAWANO        CLOUDY    28  16  61 NW9G16    29.90S
CLINTONVILLE   CLOUDY    27  12  54 NW18G24   29.91S
WAUTOMA        NOT AVBL
$$

WIZ038-039-048-051-191200-
FOX VALLEY

CITY           SKY/WX    TMP DP  RH WIND       PRES   REMARKS
NWS GREEN BAY  CLOUDY    27  17  66 NW17G24   29.91R
APPLETON       CLOUDY    27  12  54 NW10G17   29.89R
OSHKOSH        CLOUDY    27  16  63 NW15      29.91R
FOND DU LAC    CLOUDY    28  15  58 NW13      29.92R
$$

WIZ022-050-052-191200-
EAST CENTRAL WISCONSIN

CITY           SKY/WX    TMP DP  RH WIND       PRES   REMARKS
EPHRAIM        CLOUDY    28  17  64 NW12G21   29.83S
WASHINGTON ISL CLOUDY    28  17  66 N12G20    29.83R
STURGEON BAY   CLOUDY    28  18  66 NW17G26   29.86R
MANITOWOC      CLOUDY    28  18  66 NW16G29   29.89R
SHEBOYGAN      CLOUDY    28  19  69 NW13G23   29.89R
$$

LMZ563-521-522-541>543-191200-
LAKESHORE

STATION/POSITION TIME  TEMP    WIND        PRES    VSBY  WAVE
                       AIR SEA DIR/SP/G                  HT/PER
                 (UTC) (F)     (DEG/KT/KT) (MB)    (MI)  (FT/S)
SHEBOYGAN LKSHOR 1100   30     310/ 13/ 15 1012.8R
NORTHPORT PIER   1056   31     320/ 19/ 25 1010.2R
N MID LAKE BUOY  1050   31 48  300/ 23/ 29 1009.8R         5/ 5
SISTER BAY LKSHO 1104          320/ 19/ 23   N/A
$$




USA.gov is the U.S. government's official web portal to all federal, state and local government web resources and services.